owner,sensor,date,latitude,longitude,air_temperature,qcFlag 
DISL,ioos:station:DISL:MHPA:1,2013-04-01T00:00:00Z,30.6671,-87.9365,18.66,1111122 
DISL,ioos:station:DISL:MHPA:1,2013-04-01T00:30:00Z,30.6671,-87.9365,18.52,1111122 
DISL,ioos:station:DISL:MHPA:1,2013-04-01T01:00:00Z,30.6671,-87.9365,18.24,1111122 
DISL,ioos:station:DISL:MHPA:1,2013-04-01T01:30:00Z,30.6671,-87.9365,17.69,1111122 
DISL,ioos:station:DISL:MHPA:1,2013-04-01T02:00:00Z,30.6671,-87.9365,17.62,1111122 
DISL,ioos:station:DISL:MHPA:1,2013-04-01T02:30:00Z,30.6671,-87.9365,17.53,1111122 
DISL,ioos:station:DISL:MHPA:1,2013-04-01T03:00:00Z,30.6671,-87.9365,17.45,1111122 
DISL,ioos:station:DISL:MHPA:1,2013-04-01T03:30:00Z,30.6671,-87.9365,17.17,1111122 
DISL,ioos:station:DISL:MHPA:1,2013-04-01T04:00:00Z,30.6671,-87.9365,17.25,1111122 
DISL,ioos:station:DISL:MHPA:1,2013-04-01T04:30:00Z,30.6671,-87.9365,17.37,1111122 
DISL,ioos:station:DISL:MHPA:1,2013-04-01T05:00:00Z,30.6671,-87.9365,17.58,1111122 
DISL,ioos:station:DISL:MHPA:1,2013-04-01T05:30:00Z,30.6671,-87.9365,17.41,1111122 
DISL,ioos:station:DISL:MHPA:1,2013-04-01T06:00:00Z,30.6671,-87.9365,16.94,1111122 
DISL,ioos:station:DISL:MHPA:1,2013-04-01T06:30:00Z,30.6671,-87.9365,16.73,1111122 
DISL,ioos:station:DISL:MHPA:1,2013-04-01T07:00:00Z,30.6671,-87.9365,16.39,1111122 
DISL,ioos:station:DISL:MHPA:1,2013-04-01T07:30:00Z,30.6671,-87.9365,16.2,1111122 
DISL,ioos:station:DISL:MHPA:1,2013-04-01T08:00:00Z,30.6671,-87.9365,16.17,1111122 
DISL,ioos:station:DISL:MHPA:1,2013-04-01T08:30:00Z,30.6671,-87.9365,16.09,1111122 
DISL,ioos:station:DISL:MHPA:1,2013-04-01T09:00:00Z,30.6671,-87.9365,15.67,1111122 
DISL,ioos:station:DISL:MHPA:1,2013-04-01T09:30:00Z,30.6671,-87.9365,15.51,1111122 
DISL,ioos:station:DISL:MHPA:1,2013-04-01T10:00:00Z,30.6671,-87.9365,16.11,1111122 
DISL,ioos:station:DISL:MHPA:1,2013-04-01T10:30:00Z,30.6671,-87.9365,15.9,1111122 
DISL,ioos:station:DISL:MHPA:1,2013-04-01T11:00:00Z,30.6671,-87.9365,15.96,1111122 
DISL,ioos:station:DISL:MHPA:1,2013-04-01T11:30:00Z,30.6671,-87.9365,15.57,1111122 
DISL,ioos:station:DISL:MHPA:1,2013-04-01T12:00:00Z,30.6671,-87.9365,15.16,1111122 
DISL,ioos:station:DISL:MHPA:1,2013-04-01T12:30:00Z,30.6671,-87.9365,14.4,1111122 
DISL,ioos:station:DISL:MHPA:1,2013-04-01T13:00:00Z,30.6671,-87.9365,13.91,1111122 
DISL,ioos:station:DISL:MHPA:1,2013-04-01T13:30:00Z,30.6671,-87.9365,14.05,1111122 
DISL,ioos:station:DISL:MHPA:1,2013-04-01T14:00:00Z,30.6671,-87.9365,14.1,1111122 
DISL,ioos:station:DISL:MHPA:1,2013-04-01T14:30:00Z,30.6671,-87.9365,14.42,1111122 
DISL,ioos:station:DISL:MHPA:1,2013-04-01T15:00:00Z,30.6671,-87.9365,14.58,1111122 
DISL,ioos:station:DISL:MHPA:1,2013-04-01T15:30:00Z,30.6671,-87.9365,14.82,1111122 
DISL,ioos:station:DISL:MHPA:1,2013-04-01T16:00:00Z,30.6671,-87.9365,15.14,1111122 
DISL,ioos:station:DISL:MHPA:1,2013-04-01T16:30:00Z,30.6671,-87.9365,15.33,1111122 
DISL,ioos:station:DISL:MHPA:1,2013-04-01T17:00:00Z,30.6671,-87.9365,15.49,1111122 
DISL,ioos:station:DISL:MHPA:1,2013-04-01T17:30:00Z,30.6671,-87.9365,16.03,1111122 
DISL,ioos:station:DISL:MHPA:1,2013-04-01T18:00:00Z,30.6671,-87.9365,16.36,1111122 
DISL,ioos:station:DISL:MHPA:1,2013-04-01T18:30:00Z,30.6671,-87.9365,16.89,1111122 
DISL,ioos:station:DISL:MHPA:1,2013-04-01T19:00:00Z,30.6671,-87.9365,17.54,1111122 
DISL,ioos:station:DISL:MHPA:1,2013-04-01T19:30:00Z,30.6671,-87.9365,18.01,1111122 
DISL,ioos:station:DISL:MHPA:1,2013-04-01T20:00:00Z,30.6671,-87.9365,18.99,1111122 
DISL,ioos:station:DISL:MHPA:1,2013-04-01T20:30:00Z,30.6671,-87.9365,19.72,1111122 
DISL,ioos:station:DISL:MHPA:1,2013-04-01T21:00:00Z,30.6671,-87.9365,20.59,1111122 
DISL,ioos:station:DISL:MHPA:1,2013-04-01T21:30:00Z,30.6671,-87.9365,21.05,1111122 
DISL,ioos:station:DISL:MHPA:1,2013-04-01T22:00:00Z,30.6671,-87.9365,21.8,1111122 
DISL,ioos:station:DISL:MHPA:1,2013-04-01T22:30:00Z,30.6671,-87.9365,22.2,1111122 
DISL,ioos:station:DISL:MHPA:1,2013-04-01T23:00:00Z,30.6671,-87.9365,22.35,1111122 
DISL,ioos:station:DISL:MHPA:1,2013-04-01T23:30:00Z,30.6671,-87.9365,21.85,1111122 
DISL,ioos:station:DISL:MHPA:1,2013-04-02T00:00:00Z,30.6671,-87.9365,21.09,1111122 
DISL,ioos:station:DISL:MHPA:1,2013-04-02T00:30:00Z,30.6671,-87.9365,19.52,1111122 
DISL,ioos:station:DISL:MHPA:1,2013-04-02T01:00:00Z,30.6671,-87.9365,18.85,1111122 
DISL,ioos:station:DISL:MHPA:1,2013-04-02T01:30:00Z,30.6671,-87.9365,18.32,1111122 
DISL,ioos:station:DISL:MHPA:1,2013-04-02T02:00:00Z,30.6671,-87.9365,18.5,1111122 
DISL,ioos:station:DISL:MHPA:1,2013-04-02T02:30:00Z,30.6671,-87.9365,16.94,1111122 
DISL,ioos:station:DISL:MHPA:1,2013-04-02T03:00:00Z,30.6671,-87.9365,16.24,1111122 
DISL,ioos:station:DISL:MHPA:1,2013-04-02T03:30:00Z,30.6671,-87.9365,15.42,1111122 
DISL,ioos:station:DISL:MHPA:1,2013-04-02T04:00:00Z,30.6671,-87.9365,15.49,1111122 
DISL,ioos:station:DISL:MHPA:1,2013-04-02T04:30:00Z,30.6671,-87.9365,15.12,1111122 
DISL,ioos:station:DISL:MHPA:1,2013-04-02T05:00:00Z,30.6671,-87.9365,14.59,1111122 
DISL,ioos:station:DISL:MHPA:1,2013-04-02T05:30:00Z,30.6671,-87.9365,14.24,1111122 
DISL,ioos:station:DISL:MHPA:1,2013-04-02T06:00:00Z,30.6671,-87.9365,13.5,1111122 
DISL,ioos:station:DISL:MHPA:1,2013-04-02T06:30:00Z,30.6671,-87.9365,13.54,1111122 
DISL,ioos:station:DISL:MHPA:1,2013-04-02T07:00:00Z,30.6671,-87.9365,13.13,1111122 
DISL,ioos:station:DISL:MHPA:1,2013-04-02T07:30:00Z,30.6671,-87.9365,13.36,1111122 
DISL,ioos:station:DISL:MHPA:1,2013-04-02T08:00:00Z,30.6671,-87.9365,13.38,1111122 
DISL,ioos:station:DISL:MHPA:1,2013-04-02T08:30:00Z,30.6671,-87.9365,13.28,1111122 
DISL,ioos:station:DISL:MHPA:1,2013-04-02T09:00:00Z,30.6671,-87.9365,12.91,1111122 
DISL,ioos:station:DISL:MHPA:1,2013-04-02T09:30:00Z,30.6671,-87.9365,13.11,1111122 
DISL,ioos:station:DISL:MHPA:1,2013-04-02T10:00:00Z,30.6671,-87.9365,13.61,1111122 
DISL,ioos:station:DISL:MHPA:1,2013-04-02T10:30:00Z,30.6671,-87.9365,13.76,1111122 
DISL,ioos:station:DISL:MHPA:1,2013-04-02T11:00:00Z,30.6671,-87.9365,13.02,1111122 
DISL,ioos:station:DISL:MHPA:1,2013-04-02T11:30:00Z,30.6671,-87.9365,12.47,1111122 
DISL,ioos:station:DISL:MHPA:1,2013-04-02T12:00:00Z,30.6671,-87.9365,12.1,1111122 
DISL,ioos:station:DISL:MHPA:1,2013-04-02T12:30:00Z,30.6671,-87.9365,12.84,1111122 
DISL,ioos:station:DISL:MHPA:1,2013-04-02T13:00:00Z,30.6671,-87.9365,13.05,1111122 
DISL,ioos:station:DISL:MHPA:1,2013-04-02T13:30:00Z,30.6671,-87.9365,14.54,1111122 
DISL,ioos:station:DISL:MHPA:1,2013-04-02T14:00:00Z,30.6671,-87.9365,15.68,1111122 
DISL,ioos:station:DISL:MHPA:1,2013-04-02T14:30:00Z,30.6671,-87.9365,17.84,1111122 
DISL,ioos:station:DISL:MHPA:1,2013-04-02T15:00:00Z,30.6671,-87.9365,18.51,1111122 
DISL,ioos:station:DISL:MHPA:1,2013-04-02T15:30:00Z,30.6671,-87.9365,18.59,1111122 
DISL,ioos:station:DISL:MHPA:1,2013-04-02T16:00:00Z,30.6671,-87.9365,19.44,1111122 
DISL,ioos:station:DISL:MHPA:1,2013-04-02T16:30:00Z,30.6671,-87.9365,19.93,1111122 
DISL,ioos:station:DISL:MHPA:1,2013-04-02T17:00:00Z,30.6671,-87.9365,20.55,1111122 
DISL,ioos:station:DISL:MHPA:1,2013-04-02T17:30:00Z,30.6671,-87.9365,20.5,1111122 
DISL,ioos:station:DISL:MHPA:1,2013-04-02T18:00:00Z,30.6671,-87.9365,20.05,1111122 
DISL,ioos:station:DISL:MHPA:1,2013-04-02T18:30:00Z,30.6671,-87.9365,20.12,1111122 
DISL,ioos:station:DISL:MHPA:1,2013-04-02T19:00:00Z,30.6671,-87.9365,20.14,1111122 
DISL,ioos:station:DISL:MHPA:1,2013-04-02T19:30:00Z,30.6671,-87.9365,20.03,1111122 
DISL,ioos:station:DISL:MHPA:1,2013-04-02T20:00:00Z,30.6671,-87.9365,19.83,1111122 
DISL,ioos:station:DISL:MHPA:1,2013-04-02T20:30:00Z,30.6671,-87.9365,20.01,1111122 
DISL,ioos:station:DISL:MHPA:1,2013-04-02T21:00:00Z,30.6671,-87.9365,20.16,1111122 
DISL,ioos:station:DISL:MHPA:1,2013-04-02T21:30:00Z,30.6671,-87.9365,20.32,1111122 
DISL,ioos:station:DISL:MHPA:1,2013-04-02T22:00:00Z,30.6671,-87.9365,20.23,1111122 
DISL,ioos:station:DISL:MHPA:1,2013-04-02T22:30:00Z,30.6671,-87.9365,19.97,1111122 
DISL,ioos:station:DISL:MHPA:1,2013-04-02T23:00:00Z,30.6671,-87.9365,20.32,1111122 
DISL,ioos:station:DISL:MHPA:1,2013-04-02T23:30:00Z,30.6671,-87.9365,20.1,1111122 
DISL,ioos:station:DISL:MHPA:1,2013-04-03T00:00:00Z,30.6671,-87.9365,19.61,1111122 
DISL,ioos:station:DISL:MHPA:1,2013-04-03T00:30:00Z,30.6671,-87.9365,19.47,1111122 
DISL,ioos:station:DISL:MHPA:1,2013-04-03T01:00:00Z,30.6671,-87.9365,18.97,1111122 
DISL,ioos:station:DISL:MHPA:1,2013-04-03T01:30:00Z,30.6671,-87.9365,19.29,1111122 
DISL,ioos:station:DISL:MHPA:1,2013-04-03T02:00:00Z,30.6671,-87.9365,19.45,1111122 
DISL,ioos:station:DISL:MHPA:1,2013-04-03T02:30:00Z,30.6671,-87.9365,19.32,1111122 
DISL,ioos:station:DISL:MHPA:1,2013-04-03T03:00:00Z,30.6671,-87.9365,19.29,1111122 
DISL,ioos:station:DISL:MHPA:1,2013-04-03T03:30:00Z,30.6671,-87.9365,19.12,1111122 
DISL,ioos:station:DISL:MHPA:1,2013-04-03T04:00:00Z,30.6671,-87.9365,18.75,1111122 
DISL,ioos:station:DISL:MHPA:1,2013-04-03T04:30:00Z,30.6671,-87.9365,18.57,1111122 
DISL,ioos:station:DISL:MHPA:1,2013-04-03T05:00:00Z,30.6671,-87.9365,18.16,1111122 
DISL,ioos:station:DISL:MHPA:1,2013-04-03T05:30:00Z,30.6671,-87.9365,17.64,1111122 
DISL,ioos:station:DISL:MHPA:1,2013-04-03T06:00:00Z,30.6671,-87.9365,17.96,1111122 
DISL,ioos:station:DISL:MHPA:1,2013-04-03T06:30:00Z,30.6671,-87.9365,17.9,1111122 
DISL,ioos:station:DISL:MHPA:1,2013-04-03T07:00:00Z,30.6671,-87.9365,17.75,1111122 
DISL,ioos:station:DISL:MHPA:1,2013-04-03T07:30:00Z,30.6671,-87.9365,16.94,1111122 
DISL,ioos:station:DISL:MHPA:1,2013-04-03T08:00:00Z,30.6671,-87.9365,17.07,1111122 
DISL,ioos:station:DISL:MHPA:1,2013-04-03T08:30:00Z,30.6671,-87.9365,17.24,1111122 
DISL,ioos:station:DISL:MHPA:1,2013-04-03T09:00:00Z,30.6671,-87.9365,16.96,1111122 
DISL,ioos:station:DISL:MHPA:1,2013-04-03T09:30:00Z,30.6671,-87.9365,16.19,1111122 
DISL,ioos:station:DISL:MHPA:1,2013-04-03T10:00:00Z,30.6671,-87.9365,15.98,1111122 
DISL,ioos:station:DISL:MHPA:1,2013-04-03T10:30:00Z,30.6671,-87.9365,15.54,1111122 
DISL,ioos:station:DISL:MHPA:1,2013-04-03T11:00:00Z,30.6671,-87.9365,15.35,1111122 
DISL,ioos:station:DISL:MHPA:1,2013-04-03T11:30:00Z,30.6671,-87.9365,15.05,1111122 
DISL,ioos:station:DISL:MHPA:1,2013-04-03T12:00:00Z,30.6671,-87.9365,14.45,1111122 
DISL,ioos:station:DISL:MHPA:1,2013-04-03T12:30:00Z,30.6671,-87.9365,13.69,1111122 
DISL,ioos:station:DISL:MHPA:1,2013-04-03T13:00:00Z,30.6671,-87.9365,13.39,1111122 
DISL,ioos:station:DISL:MHPA:1,2013-04-03T13:30:00Z,30.6671,-87.9365,13.11,1111122 
DISL,ioos:station:DISL:MHPA:1,2013-04-03T14:00:00Z,30.6671,-87.9365,13.03,1111122 
DISL,ioos:station:DISL:MHPA:1,2013-04-03T14:30:00Z,30.6671,-87.9365,12.89,1111122 
DISL,ioos:station:DISL:MHPA:1,2013-04-03T15:00:00Z,30.6671,-87.9365,12.93,1111122 
DISL,ioos:station:DISL:MHPA:1,2013-04-03T15:30:00Z,30.6671,-87.9365,12.92,1111122 
DISL,ioos:station:DISL:MHPA:1,2013-04-03T16:00:00Z,30.6671,-87.9365,12.83,1111122 
DISL,ioos:station:DISL:MHPA:1,2013-04-03T16:30:00Z,30.6671,-87.9365,12.66,1111122 
DISL,ioos:station:DISL:MHPA:1,2013-04-03T17:00:00Z,30.6671,-87.9365,12.42,1111122 
DISL,ioos:station:DISL:MHPA:1,2013-04-03T17:30:00Z,30.6671,-87.9365,12.39,1111122 
DISL,ioos:station:DISL:MHPA:1,2013-04-03T18:00:00Z,30.6671,-87.9365,12.58,1111122 
DISL,ioos:station:DISL:MHPA:1,2013-04-03T18:30:00Z,30.6671,-87.9365,12.92,1111122 
DISL,ioos:station:DISL:MHPA:1,2013-04-03T19:00:00Z,30.6671,-87.9365,14.35,1111122 
DISL,ioos:station:DISL:MHPA:1,2013-04-03T19:30:00Z,30.6671,-87.9365,16.16,1111122 
DISL,ioos:station:DISL:MHPA:1,2013-04-03T20:00:00Z,30.6671,-87.9365,16.62,1111122 
DISL,ioos:station:DISL:MHPA:1,2013-04-03T20:30:00Z,30.6671,-87.9365,16.74,1111122 
DISL,ioos:station:DISL:MHPA:1,2013-04-03T21:00:00Z,30.6671,-87.9365,17.11,1111122 
DISL,ioos:station:DISL:MHPA:1,2013-04-03T21:30:00Z,30.6671,-87.9365,17.07,1111122 
DISL,ioos:station:DISL:MHPA:1,2013-04-03T22:00:00Z,30.6671,-87.9365,17.12,1111122 
DISL,ioos:station:DISL:MHPA:1,2013-04-03T22:30:00Z,30.6671,-87.9365,16.88,1111122 
DISL,ioos:station:DISL:MHPA:1,2013-04-03T23:00:00Z,30.6671,-87.9365,16.7,1111122 
DISL,ioos:station:DISL:MHPA:1,2013-04-03T23:30:00Z,30.6671,-87.9365,16.41,1111122 
DISL,ioos:station:DISL:MHPA:1,2013-04-04T00:00:00Z,30.6671,-87.9365,15.82,1111122 
DISL,ioos:station:DISL:MHPA:1,2013-04-04T00:30:00Z,30.6671,-87.9365,15.24,1111122 
DISL,ioos:station:DISL:MHPA:1,2013-04-04T01:00:00Z,30.6671,-87.9365,14.5,1111122 
DISL,ioos:station:DISL:MHPA:1,2013-04-04T01:30:00Z,30.6671,-87.9365,13.97,1111122 
DISL,ioos:station:DISL:MHPA:1,2013-04-04T02:00:00Z,30.6671,-87.9365,13.8,1111122 
DISL,ioos:station:DISL:MHPA:1,2013-04-04T02:30:00Z,30.6671,-87.9365,13.7,1111122 
DISL,ioos:station:DISL:MHPA:1,2013-04-04T03:00:00Z,30.6671,-87.9365,13.79,1111122 
DISL,ioos:station:DISL:MHPA:1,2013-04-04T03:30:00Z,30.6671,-87.9365,13.86,1111122 
DISL,ioos:station:DISL:MHPA:1,2013-04-04T04:00:00Z,30.6671,-87.9365,13.82,1111122 
DISL,ioos:station:DISL:MHPA:1,2013-04-04T04:30:00Z,30.6671,-87.9365,13.65,1111122 
DISL,ioos:station:DISL:MHPA:1,2013-04-04T05:00:00Z,30.6671,-87.9365,13.61,1111122 
DISL,ioos:station:DISL:MHPA:1,2013-04-04T05:30:00Z,30.6671,-87.9365,13.69,1111122 
DISL,ioos:station:DISL:MHPA:1,2013-04-04T06:00:00Z,30.6671,-87.9365,13.75,1111122 
DISL,ioos:station:DISL:MHPA:1,2013-04-04T06:30:00Z,30.6671,-87.9365,13.67,1111122 
DISL,ioos:station:DISL:MHPA:1,2013-04-04T07:00:00Z,30.6671,-87.9365,13.63,1111122 
DISL,ioos:station:DISL:MHPA:1,2013-04-04T07:30:00Z,30.6671,-87.9365,13.56,1111122 
DISL,ioos:station:DISL:MHPA:1,2013-04-04T08:00:00Z,30.6671,-87.9365,13.54,1111122 
DISL,ioos:station:DISL:MHPA:1,2013-04-04T08:30:00Z,30.6671,-87.9365,13.57,1111122 
DISL,ioos:station:DISL:MHPA:1,2013-04-04T09:00:00Z,30.6671,-87.9365,13.62,1111122 
DISL,ioos:station:DISL:MHPA:1,2013-04-04T09:30:00Z,30.6671,-87.9365,13.57,1111122 
DISL,ioos:station:DISL:MHPA:1,2013-04-04T10:00:00Z,30.6671,-87.9365,13.74,1111122 
DISL,ioos:station:DISL:MHPA:1,2013-04-04T10:30:00Z,30.6671,-87.9365,13.72,1111122 
DISL,ioos:station:DISL:MHPA:1,2013-04-04T11:00:00Z,30.6671,-87.9365,13.67,1111122 
DISL,ioos:station:DISL:MHPA:1,2013-04-04T11:30:00Z,30.6671,-87.9365,13.76,1111122 
DISL,ioos:station:DISL:MHPA:1,2013-04-04T12:00:00Z,30.6671,-87.9365,13.51,1111122 
DISL,ioos:station:DISL:MHPA:1,2013-04-04T12:30:00Z,30.6671,-87.9365,13.37,1111122 
DISL,ioos:station:DISL:MHPA:1,2013-04-04T13:00:00Z,30.6671,-87.9365,13.5,1111122 
DISL,ioos:station:DISL:MHPA:1,2013-04-04T13:30:00Z,30.6671,-87.9365,13.57,1111122 
DISL,ioos:station:DISL:MHPA:1,2013-04-04T14:00:00Z,30.6671,-87.9365,13.66,1111122 
DISL,ioos:station:DISL:MHPA:1,2013-04-04T14:30:00Z,30.6671,-87.9365,13.74,1111122 
DISL,ioos:station:DISL:MHPA:1,2013-04-04T15:00:00Z,30.6671,-87.9365,13.99,1111122 
DISL,ioos:station:DISL:MHPA:1,2013-04-04T15:30:00Z,30.6671,-87.9365,14.33,1111122 
DISL,ioos:station:DISL:MHPA:1,2013-04-04T16:00:00Z,30.6671,-87.9365,15.14,1111122 
DISL,ioos:station:DISL:MHPA:1,2013-04-04T16:30:00Z,30.6671,-87.9365,15.47,1111122 
DISL,ioos:station:DISL:MHPA:1,2013-04-04T17:00:00Z,30.6671,-87.9365,15.64,1111122 
DISL,ioos:station:DISL:MHPA:1,2013-04-04T17:30:00Z,30.6671,-87.9365,16.06,1111122 
DISL,ioos:station:DISL:MHPA:1,2013-04-04T18:00:00Z,30.6671,-87.9365,16.0,1111122 
DISL,ioos:station:DISL:MHPA:1,2013-04-04T18:30:00Z,30.6671,-87.9365,16.49,1111122 
DISL,ioos:station:DISL:MHPA:1,2013-04-04T19:00:00Z,30.6671,-87.9365,16.5,1111122 
DISL,ioos:station:DISL:MHPA:1,2013-04-04T19:30:00Z,30.6671,-87.9365,17.26,1111122 
DISL,ioos:station:DISL:MHPA:1,2013-04-04T20:00:00Z,30.6671,-87.9365,17.39,1111122 
DISL,ioos:station:DISL:MHPA:1,2013-04-04T20:30:00Z,30.6671,-87.9365,17.9,1111122 
DISL,ioos:station:DISL:MHPA:1,2013-04-04T21:00:00Z,30.6671,-87.9365,17.56,1111122 
DISL,ioos:station:DISL:MHPA:1,2013-04-04T21:30:00Z,30.6671,-87.9365,17.75,1111122 
DISL,ioos:station:DISL:MHPA:1,2013-04-04T22:00:00Z,30.6671,-87.9365,17.88,1111122 
DISL,ioos:station:DISL:MHPA:1,2013-04-04T22:30:00Z,30.6671,-87.9365,17.89,1111122 
DISL,ioos:station:DISL:MHPA:1,2013-04-04T23:00:00Z,30.6671,-87.9365,18.4,1111122 
DISL,ioos:station:DISL:MHPA:1,2013-04-04T23:30:00Z,30.6671,-87.9365,17.86,1111122 
DISL,ioos:station:DISL:MHPA:1,2013-04-05T00:00:00Z,30.6671,-87.9365,17.48,1111122 
DISL,ioos:station:DISL:MHPA:1,2013-04-05T00:30:00Z,30.6671,-87.9365,16.77,1111122 
DISL,ioos:station:DISL:MHPA:1,2013-04-05T01:00:00Z,30.6671,-87.9365,16.02,1111122 
DISL,ioos:station:DISL:MHPA:1,2013-04-05T01:30:00Z,30.6671,-87.9365,15.75,1111122 
DISL,ioos:station:DISL:MHPA:1,2013-04-05T02:00:00Z,30.6671,-87.9365,15.35,1111122 
DISL,ioos:station:DISL:MHPA:1,2013-04-05T02:30:00Z,30.6671,-87.9365,14.83,1111122 
DISL,ioos:station:DISL:MHPA:1,2013-04-05T03:00:00Z,30.6671,-87.9365,14.45,1111122 
DISL,ioos:station:DISL:MHPA:1,2013-04-05T03:30:00Z,30.6671,-87.9365,14.39,1111122 
DISL,ioos:station:DISL:MHPA:1,2013-04-05T04:00:00Z,30.6671,-87.9365,14.19,1111122 
DISL,ioos:station:DISL:MHPA:1,2013-04-05T04:30:00Z,30.6671,-87.9365,13.66,1111122 
DISL,ioos:station:DISL:MHPA:1,2013-04-05T05:00:00Z,30.6671,-87.9365,13.28,1111122 
DISL,ioos:station:DISL:MHPA:1,2013-04-05T05:30:00Z,30.6671,-87.9365,13.18,1111122 
DISL,ioos:station:DISL:MHPA:1,2013-04-05T06:00:00Z,30.6671,-87.9365,13.04,1111122 
DISL,ioos:station:DISL:MHPA:1,2013-04-05T06:30:00Z,30.6671,-87.9365,12.74,1111122 
DISL,ioos:station:DISL:MHPA:1,2013-04-05T07:00:00Z,30.6671,-87.9365,12.56,1111122 
DISL,ioos:station:DISL:MHPA:1,2013-04-05T07:30:00Z,30.6671,-87.9365,11.61,1111122 
DISL,ioos:station:DISL:MHPA:1,2013-04-05T08:00:00Z,30.6671,-87.9365,11.65,1111122 
DISL,ioos:station:DISL:MHPA:1,2013-04-05T08:30:00Z,30.6671,-87.9365,11.53,1111122 
DISL,ioos:station:DISL:MHPA:1,2013-04-05T09:00:00Z,30.6671,-87.9365,11.46,1111122 
DISL,ioos:station:DISL:MHPA:1,2013-04-05T09:30:00Z,30.6671,-87.9365,11.31,1111122 
DISL,ioos:station:DISL:MHPA:1,2013-04-05T10:00:00Z,30.6671,-87.9365,11.0,1111122 
DISL,ioos:station:DISL:MHPA:1,2013-04-05T10:30:00Z,30.6671,-87.9365,10.95,1111122 
DISL,ioos:station:DISL:MHPA:1,2013-04-05T11:00:00Z,30.6671,-87.9365,10.64,1111122 
DISL,ioos:station:DISL:MHPA:1,2013-04-05T11:30:00Z,30.6671,-87.9365,10.54,1111122 
DISL,ioos:station:DISL:MHPA:1,2013-04-05T12:00:00Z,30.6671,-87.9365,10.35,1111122 
DISL,ioos:station:DISL:MHPA:1,2013-04-05T12:30:00Z,30.6671,-87.9365,10.52,1111122 
DISL,ioos:station:DISL:MHPA:1,2013-04-05T13:00:00Z,30.6671,-87.9365,10.56,1111122 
DISL,ioos:station:DISL:MHPA:1,2013-04-05T13:30:00Z,30.6671,-87.9365,10.71,1111122 
DISL,ioos:station:DISL:MHPA:1,2013-04-05T14:00:00Z,30.6671,-87.9365,10.89,1111122 
DISL,ioos:station:DISL:MHPA:1,2013-04-05T14:30:00Z,30.6671,-87.9365,10.83,1111122 
DISL,ioos:station:DISL:MHPA:1,2013-04-05T15:00:00Z,30.6671,-87.9365,11.34,1111122 
DISL,ioos:station:DISL:MHPA:1,2013-04-05T15:30:00Z,30.6671,-87.9365,11.58,1111122 
DISL,ioos:station:DISL:MHPA:1,2013-04-05T16:00:00Z,30.6671,-87.9365,11.78,1111122 
DISL,ioos:station:DISL:MHPA:1,2013-04-05T16:30:00Z,30.6671,-87.9365,12.28,1111122 
DISL,ioos:station:DISL:MHPA:1,2013-04-05T17:00:00Z,30.6671,-87.9365,13.07,1111122 
DISL,ioos:station:DISL:MHPA:1,2013-04-05T17:30:00Z,30.6671,-87.9365,13.6,1111122 
DISL,ioos:station:DISL:MHPA:1,2013-04-05T18:00:00Z,30.6671,-87.9365,14.18,1111122 
DISL,ioos:station:DISL:MHPA:1,2013-04-05T18:30:00Z,30.6671,-87.9365,14.96,1111122 
DISL,ioos:station:DISL:MHPA:1,2013-04-05T19:00:00Z,30.6671,-87.9365,15.47,1111122 
DISL,ioos:station:DISL:MHPA:1,2013-04-05T19:30:00Z,30.6671,-87.9365,16.01,1111122 
DISL,ioos:station:DISL:MHPA:1,2013-04-05T20:00:00Z,30.6671,-87.9365,16.65,1111122 
DISL,ioos:station:DISL:MHPA:1,2013-04-05T20:30:00Z,30.6671,-87.9365,17.2,1111122 
DISL,ioos:station:DISL:MHPA:1,2013-04-05T21:00:00Z,30.6671,-87.9365,18.01,1111122 
DISL,ioos:station:DISL:MHPA:1,2013-04-05T21:30:00Z,30.6671,-87.9365,18.4,1111122 
DISL,ioos:station:DISL:MHPA:1,2013-04-05T22:00:00Z,30.6671,-87.9365,18.84,1111122 
DISL,ioos:station:DISL:MHPA:1,2013-04-05T22:30:00Z,30.6671,-87.9365,18.9,1111122 
DISL,ioos:station:DISL:MHPA:1,2013-04-05T23:00:00Z,30.6671,-87.9365,18.91,1111122 
DISL,ioos:station:DISL:MHPA:1,2013-04-05T23:30:00Z,30.6671,-87.9365,18.72,1111122 
DISL,ioos:station:DISL:MHPA:1,2013-04-06T00:00:00Z,30.6671,-87.9365,18.1,1111122 
DISL,ioos:station:DISL:MHPA:1,2013-04-06T00:30:00Z,30.6671,-87.9365,16.95,1111122 
DISL,ioos:station:DISL:MHPA:1,2013-04-06T01:00:00Z,30.6671,-87.9365,16.34,1111122 
DISL,ioos:station:DISL:MHPA:1,2013-04-06T01:30:00Z,30.6671,-87.9365,15.76,1111122 
DISL,ioos:station:DISL:MHPA:1,2013-04-06T02:00:00Z,30.6671,-87.9365,15.34,1111122 
DISL,ioos:station:DISL:MHPA:1,2013-04-06T02:30:00Z,30.6671,-87.9365,14.87,1111122 
DISL,ioos:station:DISL:MHPA:1,2013-04-06T03:00:00Z,30.6671,-87.9365,14.43,1111122 
DISL,ioos:station:DISL:MHPA:1,2013-04-06T03:30:00Z,30.6671,-87.9365,14.0,1111122 
DISL,ioos:station:DISL:MHPA:1,2013-04-06T04:00:00Z,30.6671,-87.9365,13.43,1111122 
DISL,ioos:station:DISL:MHPA:1,2013-04-06T04:30:00Z,30.6671,-87.9365,12.81,1111122 
DISL,ioos:station:DISL:MHPA:1,2013-04-06T05:00:00Z,30.6671,-87.9365,12.48,1111122 
DISL,ioos:station:DISL:MHPA:1,2013-04-06T05:30:00Z,30.6671,-87.9365,11.94,1111122 
DISL,ioos:station:DISL:MHPA:1,2013-04-06T06:00:00Z,30.6671,-87.9365,11.36,1111122 
DISL,ioos:station:DISL:MHPA:1,2013-04-06T06:30:00Z,30.6671,-87.9365,11.36,1111122 
DISL,ioos:station:DISL:MHPA:1,2013-04-06T07:00:00Z,30.6671,-87.9365,11.48,1111122 
DISL,ioos:station:DISL:MHPA:1,2013-04-06T07:30:00Z,30.6671,-87.9365,11.05,1111122 
DISL,ioos:station:DISL:MHPA:1,2013-04-06T08:00:00Z,30.6671,-87.9365,10.78,1111122 
DISL,ioos:station:DISL:MHPA:1,2013-04-06T08:30:00Z,30.6671,-87.9365,10.41,1111122 
DISL,ioos:station:DISL:MHPA:1,2013-04-06T09:00:00Z,30.6671,-87.9365,10.66,1111122 
DISL,ioos:station:DISL:MHPA:1,2013-04-06T09:30:00Z,30.6671,-87.9365,10.46,1111122 
DISL,ioos:station:DISL:MHPA:1,2013-04-06T10:00:00Z,30.6671,-87.9365,10.3,1111122 
DISL,ioos:station:DISL:MHPA:1,2013-04-06T10:30:00Z,30.6671,-87.9365,10.04,1111122 
DISL,ioos:station:DISL:MHPA:1,2013-04-06T11:00:00Z,30.6671,-87.9365,9.78,1111122 
DISL,ioos:station:DISL:MHPA:1,2013-04-06T11:30:00Z,30.6671,-87.9365,9.59,1111122 
DISL,ioos:station:DISL:MHPA:1,2013-04-06T12:00:00Z,30.6671,-87.9365,9.47,1111122 
DISL,ioos:station:DISL:MHPA:1,2013-04-06T12:30:00Z,30.6671,-87.9365,11.33,1111122 
DISL,ioos:station:DISL:MHPA:1,2013-04-06T13:00:00Z,30.6671,-87.9365,11.42,1111122 
DISL,ioos:station:DISL:MHPA:1,2013-04-06T13:30:00Z,30.6671,-87.9365,12.77,1111122 
DISL,ioos:station:DISL:MHPA:1,2013-04-06T14:00:00Z,30.6671,-87.9365,14.99,1111122 
DISL,ioos:station:DISL:MHPA:1,2013-04-06T14:30:00Z,30.6671,-87.9365,15.95,1111122 
DISL,ioos:station:DISL:MHPA:1,2013-04-06T15:00:00Z,30.6671,-87.9365,18.07,1111122 
DISL,ioos:station:DISL:MHPA:1,2013-04-06T15:30:00Z,30.6671,-87.9365,17.02,1111122 
DISL,ioos:station:DISL:MHPA:1,2013-04-06T16:00:00Z,30.6671,-87.9365,16.5,1111122 
DISL,ioos:station:DISL:MHPA:1,2013-04-06T16:30:00Z,30.6671,-87.9365,17.19,1111122 
DISL,ioos:station:DISL:MHPA:1,2013-04-06T17:00:00Z,30.6671,-87.9365,17.16,1111122 
DISL,ioos:station:DISL:MHPA:1,2013-04-06T17:30:00Z,30.6671,-87.9365,17.18,1111122 
DISL,ioos:station:DISL:MHPA:1,2013-04-06T18:00:00Z,30.6671,-87.9365,17.28,1111122 
DISL,ioos:station:DISL:MHPA:1,2013-04-06T18:30:00Z,30.6671,-87.9365,17.61,1111122 
DISL,ioos:station:DISL:MHPA:1,2013-04-06T19:00:00Z,30.6671,-87.9365,17.82,1111122 
DISL,ioos:station:DISL:MHPA:1,2013-04-06T19:30:00Z,30.6671,-87.9365,17.97,1111122 
DISL,ioos:station:DISL:MHPA:1,2013-04-06T20:00:00Z,30.6671,-87.9365,18.06,1111122 
DISL,ioos:station:DISL:MHPA:1,2013-04-06T20:30:00Z,30.6671,-87.9365,18.35,1111122 
DISL,ioos:station:DISL:MHPA:1,2013-04-06T21:00:00Z,30.6671,-87.9365,18.28,1111122 
DISL,ioos:station:DISL:MHPA:1,2013-04-06T21:30:00Z,30.6671,-87.9365,18.31,1111122 
DISL,ioos:station:DISL:MHPA:1,2013-04-06T22:00:00Z,30.6671,-87.9365,18.41,1111122 
DISL,ioos:station:DISL:MHPA:1,2013-04-06T22:30:00Z,30.6671,-87.9365,18.57,1111122 
DISL,ioos:station:DISL:MHPA:1,2013-04-06T23:00:00Z,30.6671,-87.9365,18.48,1111122 
DISL,ioos:station:DISL:MHPA:1,2013-04-06T23:30:00Z,30.6671,-87.9365,18.51,1111122 